Total_Precipitation_Accumulation
0.07 0.07 0.08 0.11 0.08 0.05 0.01 0.00 0.00 0.00 0.00 0.00 0.00 0.00 0.00 0.00 0.01 0.04 0.05 0.05 0.06 0.08 0.13 0.25 0.38 0.41 0.50 0.55 0.52 0.43 0.37 0.35 0.39 0.39 0.38 0.37 0.39 0.44 0.51 0.56 0.60 0.63 0.68 0.68 0.69 0.83 0.89 0.89 0.81
0.07 0.09 0.12 0.13 0.08 0.03 0.01 0.00 0.00 0.00 0.00 0.00 0.00 0.00 0.00 0.01 0.01 0.03 0.07 0.06 0.07 0.09 0.12 0.19 0.34 0.41 0.48 0.50 0.48 0.43 0.39 0.35 0.36 0.35 0.36 0.39 0.42 0.43 0.49 0.56 0.62 0.66 0.75 0.77 0.81 0.88 0.86 0.84 0.76
0.12 0.14 0.15 0.14 0.06 0.02 0.01 0.00 0.00 0.00 0.00 0.00 0.00 0.01 0.01 0.02 0.02 0.04 0.07 0.07 0.09 0.11 0.17 0.25 0.32 0.41 0.47 0.48 0.46 0.46 0.41 0.36 0.35 0.35 0.36 0.40 0.44 0.46 0.48 0.50 0.58 0.64 0.74 0.74 0.75 0.81 0.78 0.74 0.72
0.20 0.24 0.18 0.12 0.04 0.01 0.00 0.00 0.00 0.00 0.00 0.00 0.00 0.01 0.03 0.02 0.02 0.04 0.08 0.09 0.10 0.11 0.17 0.28 0.37 0.44 0.47 0.48 0.52 0.53 0.46 0.42 0.39 0.39 0.40 0.43 0.47 0.49 0.48 0.47 0.46 0.51 0.57 0.61 0.65 0.71 0.71 0.67 0.62
0.25 0.26 0.19 0.10 0.03 0.01 0.00 0.00 0.00 0.00 0.00 0.00 0.01 0.01 0.03 0.03 0.03 0.04 0.07 0.08 0.11 0.13 0.17 0.27 0.42 0.53 0.53 0.51 0.54 0.55 0.49 0.45 0.43 0.45 0.48 0.48 0.49 0.52 0.49 0.42 0.40 0.42 0.44 0.47 0.56 0.67 0.70 0.68 0.60
0.31 0.27 0.17 0.08 0.02 0.01 0.01 0.01 0.01 0.01 0.00 0.00 0.01 0.02 0.05 0.06 0.05 0.05 0.06 0.08 0.12 0.14 0.19 0.30 0.47 0.61 0.60 0.57 0.55 0.61 0.55 0.52 0.49 0.50 0.52 0.53 0.54 0.55 0.53 0.45 0.40 0.39 0.38 0.41 0.46 0.58 0.73 0.72 0.60
0.32 0.26 0.12 0.07 0.04 0.02 0.01 0.01 0.02 0.02 0.01 0.01 0.01 0.04 0.07 0.08 0.07 0.06 0.07 0.09 0.13 0.17 0.22 0.32 0.48 0.66 0.68 0.61 0.60 0.65 0.62 0.61 0.59 0.57 0.56 0.53 0.54 0.55 0.57 0.54 0.49 0.47 0.44 0.43 0.44 0.51 0.68 0.71 0.63
0.32 0.34 0.16 0.07 0.05 0.04 0.02 0.01 0.02 0.03 0.02 0.01 0.02 0.04 0.06 0.07 0.08 0.10 0.13 0.14 0.18 0.20 0.28 0.39 0.50 0.74 0.81 0.64 0.59 0.64 0.64 0.66 0.64 0.60 0.52 0.44 0.46 0.51 0.51 0.48 0.47 0.47 0.48 0.48 0.43 0.45 0.55 0.62 0.60
0.42 0.44 0.22 0.08 0.06 0.04 0.02 0.02 0.02 0.02 0.03 0.02 0.03 0.03 0.04 0.06 0.12 0.16 0.20 0.23 0.26 0.28 0.37 0.50 0.63 0.77 0.80 0.67 0.56 0.64 0.68 0.69 0.65 0.57 0.47 0.43 0.44 0.45 0.42 0.36 0.37 0.43 0.48 0.48 0.47 0.47 0.51 0.56 0.51
0.56 0.42 0.21 0.10 0.06 0.06 0.04 0.04 0.05 0.05 0.05 0.05 0.04 0.05 0.07 0.11 0.17 0.19 0.20 0.21 0.25 0.31 0.43 0.52 0.69 0.80 0.73 0.63 0.61 0.69 0.68 0.68 0.61 0.49 0.46 0.47 0.50 0.51 0.45 0.38 0.35 0.42 0.46 0.50 0.54 0.56 0.54 0.51 0.47
0.51 0.34 0.18 0.11 0.09 0.10 0.08 0.07 0.08 0.08 0.08 0.06 0.05 0.07 0.11 0.17 0.20 0.18 0.19 0.20 0.24 0.32 0.47 0.59 0.74 0.91 0.81 0.68 0.62 0.66 0.69 0.70 0.68 0.58 0.53 0.56 0.60 0.58 0.54 0.49 0.47 0.45 0.44 0.47 0.51 0.57 0.52 0.53 0.65
0.45 0.27 0.15 0.13 0.12 0.16 0.15 0.11 0.10 0.12 0.09 0.06 0.06 0.11 0.17 0.15 0.15 0.16 0.19 0.22 0.27 0.34 0.44 0.61 0.70 0.88 0.93 0.83 0.74 0.63 0.60 0.62 0.65 0.68 0.64 0.63 0.58 0.52 0.49 0.44 0.42 0.44 0.44 0.45 0.47 0.50 0.53 0.54 0.58
0.40 0.30 0.19 0.14 0.15 0.17 0.18 0.17 0.13 0.12 0.09 0.10 0.15 0.18 0.18 0.15 0.15 0.17 0.20 0.22 0.27 0.32 0.39 0.54 0.62 0.73 0.85 0.91 0.85 0.76 0.66 0.60 0.59 0.65 0.68 0.63 0.55 0.50 0.46 0.42 0.42 0.40 0.40 0.41 0.42 0.41 0.43 0.49 0.53
0.37 0.30 0.26 0.20 0.19 0.21 0.20 0.19 0.17 0.15 0.13 0.15 0.17 0.17 0.18 0.18 0.17 0.19 0.21 0.22 0.25 0.31 0.38 0.47 0.56 0.62 0.72 0.74 0.77 0.78 0.75 0.71 0.68 0.66 0.67 0.70 0.58 0.50 0.46 0.42 0.39 0.38 0.39 0.38 0.39 0.40 0.42 0.45 0.47
0.37 0.38 0.32 0.26 0.23 0.24 0.27 0.25 0.18 0.14 0.15 0.16 0.18 0.18 0.20 0.20 0.20 0.21 0.22 0.22 0.24 0.31 0.40 0.46 0.53 0.56 0.60 0.63 0.67 0.70 0.70 0.72 0.70 0.67 0.66 0.70 0.70 0.57 0.51 0.48 0.43 0.38 0.38 0.43 0.50 0.51 0.52 0.54 0.56
0.51 0.55 0.47 0.29 0.22 0.26 0.38 0.30 0.17 0.15 0.16 0.15 0.16 0.18 0.21 0.22 0.21 0.24 0.29 0.29 0.28 0.31 0.39 0.48 0.52 0.57 0.60 0.65 0.70 0.74 0.73 0.74 0.68 0.69 0.72 0.69 0.72 0.71 0.65 0.61 0.53 0.45 0.44 0.48 0.54 0.61 0.63 0.58 0.60
0.74 0.61 0.44 0.30 0.23 0.27 0.39 0.30 0.15 0.16 0.17 0.14 0.14 0.16 0.18 0.21 0.21 0.23 0.28 0.30 0.31 0.32 0.37 0.48 0.54 0.56 0.61 0.73 0.80 0.79 0.84 0.85 0.78 0.76 0.80 0.73 0.71 0.71 0.71 0.73 0.70 0.61 0.57 0.55 0.55 0.53 0.57 0.60 0.65
0.61 0.44 0.34 0.29 0.25 0.29 0.33 0.23 0.15 0.18 0.18 0.15 0.14 0.16 0.18 0.19 0.20 0.23 0.28 0.31 0.36 0.39 0.39 0.46 0.59 0.69 0.74 0.84 0.93 0.93 0.88 0.88 0.88 0.82 0.82 0.76 0.74 0.71 0.69 0.72 0.73 0.72 0.71 0.66 0.63 0.59 0.57 0.56 0.61
0.44 0.40 0.34 0.26 0.26 0.37 0.32 0.20 0.15 0.18 0.21 0.19 0.15 0.15 0.18 0.20 0.22 0.27 0.30 0.34 0.36 0.42 0.43 0.44 0.54 0.72 0.84 0.87 0.90 0.92 0.78 0.81 0.87 0.85 0.81 0.83 0.72 0.70 0.69 0.67 0.67 0.68 0.69 0.69 0.69 0.65 0.59 0.54 0.55
0.54 0.50 0.38 0.29 0.26 0.39 0.38 0.26 0.18 0.16 0.19 0.19 0.17 0.15 0.17 0.21 0.24 0.29 0.34 0.37 0.35 0.38 0.43 0.44 0.47 0.60 0.73 0.76 0.82 0.94 0.89 0.84 0.93 0.91 0.86 0.93 0.79 0.65 0.66 0.66 0.66 0.67 0.67 0.66 0.65 0.66 0.64 0.58 0.54
0.63 0.53 0.41 0.40 0.37 0.42 0.44 0.37 0.22 0.16 0.17 0.18 0.18 0.16 0.17 0.21 0.22 0.27 0.33 0.37 0.38 0.36 0.36 0.41 0.45 0.54 0.68 0.82 0.92 1.04 1.20 1.09 1.01 0.98 0.91 0.98 0.98 0.74 0.63 0.62 0.66 0.66 0.68 0.66 0.60 0.59 0.64 0.63 0.59
0.59 0.41 0.39 0.48 0.64 0.65 0.54 0.57 0.28 0.20 0.18 0.18 0.19 0.17 0.19 0.23 0.24 0.26 0.31 0.34 0.39 0.36 0.36 0.38 0.46 0.51 0.60 0.79 0.91 0.90 0.98 1.01 0.83 0.78 0.84 0.92 1.07 0.95 0.68 0.61 0.62 0.61 0.63 0.65 0.66 0.62 0.62 0.65 0.64
0.46 0.36 0.45 0.56 0.75 0.74 0.54 0.60 0.35 0.23 0.25 0.21 0.19 0.18 0.21 0.21 0.25 0.25 0.26 0.30 0.38 0.41 0.41 0.41 0.50 0.55 0.56 0.67 0.80 0.87 0.88 0.91 0.92 0.83 0.79 0.87 0.98 1.04 0.92 0.69 0.65 0.64 0.62 0.60 0.62 0.65 0.68 0.66 0.65
0.53 0.61 0.75 0.83 1.09 1.10 0.46 0.45 0.40 0.30 0.29 0.27 0.23 0.20 0.20 0.19 0.25 0.25 0.28 0.34 0.42 0.47 0.48 0.47 0.50 0.56 0.58 0.64 0.75 0.81 0.83 0.87 0.97 0.94 0.81 0.79 0.90 0.99 1.02 0.91 0.74 0.69 0.64 0.60 0.60 0.63 0.65 0.67 0.68
0.91 1.32 1.85 1.94 1.74 0.97 0.29 0.33 0.39 0.33 0.33 0.37 0.32 0.24 0.19 0.21 0.25 0.24 0.26 0.32 0.41 0.49 0.49 0.48 0.49 0.57 0.61 0.65 0.68 0.72 0.79 0.84 0.87 0.93 0.90 0.84 0.84 0.93 1.00 0.98 0.85 0.75 0.73 0.69 0.68 0.71 0.69 0.69 0.72
0.90 1.11 1.42 1.42 0.99 0.49 0.26 0.30 0.30 0.28 0.26 0.29 0.29 0.27 0.23 0.22 0.24 0.23 0.22 0.25 0.33 0.43 0.50 0.51 0.47 0.51 0.61 0.67 0.67 0.70 0.76 0.85 0.83 0.84 0.91 0.91 0.86 0.88 1.00 1.04 0.97 0.87 0.84 0.86 0.85 0.86 0.84 0.82 0.81
0.87 0.85 0.71 0.92 0.69 0.51 0.35 0.27 0.22 0.17 0.17 0.23 0.25 0.28 0.29 0.24 0.23 0.21 0.21 0.22 0.26 0.33 0.41 0.53 0.52 0.52 0.54 0.63 0.73 0.73 0.74 0.79 0.79 0.77 0.81 0.84 0.82 0.81 0.87 0.98 1.06 1.08 1.05 1.01 1.04 1.05 1.00 0.99 0.96
0.70 0.82 0.94 1.27 1.16 0.70 0.36 0.27 0.31 0.24 0.20 0.23 0.27 0.29 0.35 0.31 0.25 0.22 0.20 0.23 0.25 0.30 0.33 0.46 0.59 0.59 0.60 0.60 0.70 0.77 0.76 0.78 0.81 0.81 0.77 0.80 0.85 0.86 0.83 0.86 0.91 1.00 1.07 1.07 1.07 1.07 1.08 1.13 1.12
0.64 0.90 1.19 1.24 0.99 0.77 0.48 0.36 0.37 0.31 0.25 0.26 0.29 0.32 0.38 0.40 0.38 0.32 0.25 0.24 0.26 0.32 0.36 0.39 0.54 0.62 0.65 0.62 0.64 0.73 0.80 0.79 0.84 0.88 0.88 0.85 0.90 0.95 0.92 0.89 0.86 0.84 0.90 1.02 1.10 1.10 1.13 1.17 1.14
0.54 0.68 0.92 1.21 0.94 0.63 0.55 0.38 0.29 0.26 0.25 0.26 0.29 0.33 0.38 0.40 0.40 0.37 0.30 0.28 0.32 0.37 0.39 0.41 0.52 0.58 0.66 0.69 0.69 0.71 0.81 0.85 0.86 0.89 0.95 0.96 0.97 1.01 1.00 0.98 0.94 0.84 0.80 0.89 1.00 1.05 1.08 1.14 1.13